"Period start","avg(HW err(1)/warn(2) (#))","avg(Visibility (m))","avg(Weather code (#))","avg(Precip intensity (mm/h))","min(HW err(1)/warn(2) (#))","max(HW err(1)/warn(2) (#))","std(HW err(1)/warn(2) (#))","med(HW err(1)/warn(2) (#))","min(Visibility (m))","max(Visibility (m))","std(Visibility (m))","med(Visibility (m))","min(Weather code (#))","max(Weather code (#))","std(Weather code (#))","med(Weather code (#))","min(Precip intensity (mm/h))","max(Precip intensity (mm/h))","std(Precip intensity (mm/h))","med(Precip intensity (mm/h))"
2017-07-29 00:00:00,0,50000,0,0.00,0,2,1,0,50000,50000,0,50000,0,0,0,0,0.00,0.00,0.00,0.00
2017-07-29 00:10:00,0,49093,0,0.00,0,2,1,0,45881,50000,1306,50000,0,0,0,0,0.00,0.00,0.00,0.00
2017-07-29 00:20:00,1,40658,0,0.00,0,2,1,2,32202,50000,6065,42160,0,0,0,0,0.00,0.00,0.00,0.00
2017-07-29 00:30:00,0,47184,0,0.00,0,0,0,0,38099,50000,3898,48916,0,0,0,0,0.00,0.00,0.00,0.00
2017-07-29 00:40:00,0,47738,0,0.00,0,0,0,0,40894,50000,3157,49823,0,0,0,0,0.00,0.00,0.00,0.00
2017-07-29 00:50:00,1,47555,0,0.00,0,2,1,2,39952,50000,3286,49602,0,0,0,0,0.00,0.00,0.00,0.00
2017-07-29 01:00:00,0,49662,0,0.00,0,0,0,0,46958,50000,905,50000,0,0,0,0,0.00,0.00,0.00,0.00
2017-07-29 01:10:00,1,40702,0,0.00,0,2,1,2,21573,50000,10803,47109,0,0,0,0,0.00,0.00,0.00,0.00
2017-07-29 01:20:00,0,46669,0,0.00,0,0,0,0,37819,50000,4294,48950,0,0,0,0,0.00,0.00,0.00,0.00
2017-07-29 01:30:00,1,46665,0,0.00,0,2,1,0,39348,50000,3267,46670,0,0,0,0,0.00,0.00,0.00,0.00
2017-07-29 01:40:00,1,45391,0,0.00,0,2,1,2,36202,50000,5425,47633,0,0,0,0,0.00,0.00,0.00,0.00
2017-07-29 01:50:00,1,46398,0,0.00,0,2,1,0,37685,50000,3951,47444,0,0,0,0,0.00,0.00,0.00,0.00
2017-07-29 02:00:00,0,48422,0,0.00,0,0,0,0,41055,50000,2904,50000,0,0,0,0,0.00,0.00,0.00,0.00
2017-07-29 02:10:00,0,46351,0,0.00,0,0,0,0,40022,50000,3645,46992,0,0,0,0,0.00,0.00,0.00,0.00
2017-07-29 02:20:00,0,45498,0,0.00,0,0,0,0,38159,50000,4124,45949,0,0,0,0,0.00,0.00,0.00,0.00
2017-07-29 02:30:00,0,43442,0,0.00,0,0,0,0,35930,50000,5723,43206,0,0,0,0,0.00,0.00,0.00,0.00
2017-07-29 02:40:00,0,49286,0,0.00,0,0,0,0,42863,50000,2141,50000,0,0,0,0,0.00,0.00,0.00,0.00
2017-07-29 02:50:00,0,49429,0,0.00,0,0,0,0,47412,50000,968,50000,0,0,0,0,0.00,0.00,0.00,0.00
2017-07-29 03:00:00,0,48939,0,0.00,0,0,0,0,43831,50000,2022,50000,0,0,0,0,0.00,0.00,0.00,0.00
2017-07-29 03:10:00,0,48110,0,0.00,0,0,0,0,36684,50000,3893,49629,0,0,0,0,0.00,0.00,0.00,0.00
2017-07-29 03:20:00,0,47572,0,0.00,0,0,0,0,40569,50000,3256,49755,0,0,0,0,0.00,0.00,0.00,0.00
2017-07-29 03:30:00,0,48251,0,0.00,0,0,0,0,40146,50000,3325,50000,0,0,0,0,0.00,0.00,0.00,0.00
2017-07-29 03:40:00,0,48239,0,0.00,0,0,0,0,41884,50000,3188,50000,0,0,0,0,0.00,0.00,0.00,0.00
2017-07-29 03:50:00,0,49640,0,0.00,0,0,0,0,48541,50000,558,50000,0,0,0,0,0.00,0.00,0.00,0.00
2017-07-29 04:00:00,0,48237,12,0.04,0,0,0,0,45363,50000,1717,48892,0,61,24,0,0.00,0.40,0.12,0.00
2017-07-29 04:10:00,0,48572,6,0.01,0,0,0,0,43877,50000,2289,50000,0,61,18,0,0.00,0.05,0.02,0.00
2017-07-29 04:20:00,0,47110,0,0.00,0,0,0,0,37235,50000,4581,50000,0,0,0,0,0.00,0.00,0.00,0.00
2017-07-29 04:30:00,0,42040,39,0.33,0,0,0,0,29474,50000,6848,42770,0,51,20,51,0.00,0.80,0.27,0.25
2017-07-29 04:40:00,0,30847,55,2.51,0,0,0,0,18443,36971,6024,33721,51,61,5,52,0.35,6.15,1.82,2.83
2017-07-29 04:50:00,0,43424,61,1.44,0,0,0,0,25557,50000,9715,49775,61,61,0,61,0.05,5.45,1.61,0.83
2017-07-29 05:00:00,0,48238,54,0.71,0,0,0,0,36203,50000,4116,50000,51,61,5,51,0.10,2.60,0.85,0.25
2017-07-29 05:10:00,0,41445,61,1.79,0,0,0,0,29158,50000,6601,41202,61,61,0,61,0.50,4.25,1.21,1.60
2017-07-29 05:20:00,0,40450,58,1.01,0,0,0,0,25000,50000,8802,42262,52,61,4,61,0.25,2.50,0.85,0.45
2017-07-29 05:30:00,0,36218,55,0.20,0,0,0,0,20493,46353,7999,36276,51,61,5,52,0.05,0.55,0.13,0.17
2017-07-29 05:40:00,0,47095,34,0.06,0,0,0,0,41963,50000,2645,47846,0,61,28,51,0.00,0.25,0.08,0.03
2017-07-29 05:50:00,0,46315,38,0.29,0,0,0,0,39172,50000,3931,46855,0,61,25,51,0.00,0.75,0.23,0.30
2017-07-29 06:00:00,0,39450,56,1.27,0,0,0,0,30449,45544,4443,39044,51,61,5,56,0.45,2.10,0.46,1.18
2017-07-29 06:10:00,0,37621,53,0.72,0,0,0,0,25028,50000,7633,34882,51,61,4,51,0.10,1.30,0.37,0.65
2017-07-29 06:20:00,0,48586,53,0.38,0,0,0,0,45926,50000,1710,49805,51,61,4,51,0.05,1.00,0.36,0.20
2017-07-29 06:30:00,0,43541,54,1.24,0,0,0,0,37024,50000,5170,43062,51,61,4,52,0.10,2.95,0.98,0.88
2017-07-29 06:40:00,0,33417,57,1.69,0,0,0,0,16606,50000,12480,30074,51,61,5,61,0.30,3.50,1.18,1.55
2017-07-29 06:50:00,0,37316,53,0.97,0,0,0,0,24753,50000,8740,35380,52,61,3,52,0.45,1.70,0.38,0.88
2017-07-29 07:00:00,0,29090,60,2.60,0,0,0,0,21029,40340,6405,28756,52,61,3,61,0.60,5.40,1.47,2.62
2017-07-29 07:10:00,0,43203,52,0.35,0,0,0,0,32631,50000,5899,43937,51,61,3,51,0.10,0.95,0.24,0.25
2017-07-29 07:20:00,0,40507,51,0.41,0,0,0,0,26430,50000,7498,38650,51,51,0,51,0.10,1.05,0.29,0.30
2017-07-29 07:30:00,0,40554,51,0.39,0,0,0,0,30649,49721,6142,38760,51,51,0,51,0.05,0.75,0.22,0.38
2017-07-29 07:40:00,0,49176,55,0.18,0,0,0,0,46007,50000,1383,50000,51,61,5,51,0.00,0.55,0.17,0.12
2017-07-29 07:50:00,0,47865,57,0.12,0,0,0,0,39065,50000,3517,50000,41,61,8,61,0.00,0.55,0.16,0.08
2017-07-29 08:00:00,0,43412,51,0.32,0,0,0,0,35725,50000,4763,43068,51,51,0,51,0.05,0.80,0.22,0.25
2017-07-29 08:10:00,0,43745,55,0.09,0,0,0,0,36106,50000,4424,43626,51,61,5,51,0.05,0.15,0.04,0.10
2017-07-29 08:20:00,0,47448,30,0.07,0,0,0,0,40739,50000,3447,49282,0,61,30,26,0.00,0.45,0.14,0.00
2017-07-29 08:30:00,0,38132,43,0.42,0,0,0,0,25754,48447,7583,37790,0,61,22,51,0.00,1.10,0.35,0.50
2017-07-29 08:40:00,0,44508,26,0.04,0,0,0,0,32502,50000,5094,44970,0,51,26,26,0.00,0.20,0.06,0.03
2017-07-29 08:50:00,0,47005,0,0.00,0,0,0,0,41220,50000,3046,48448,0,0,0,0,0.00,0.00,0.00,0.00
2017-07-29 09:00:00,0,49836,0,0.00,0,0,0,0,48741,50000,382,50000,0,0,0,0,0.00,0.00,0.00,0.00
2017-07-29 09:10:00,0,49916,0,0.00,0,0,0,0,49348,50000,197,50000,0,0,0,0,0.00,0.00,0.00,0.00
2017-07-29 09:20:00,0,49733,0,0.00,0,0,0,0,47530,50000,736,50000,0,0,0,0,0.00,0.00,0.00,0.00
2017-07-29 09:30:00,0,50000,0,0.00,0,0,0,0,50000,50000,0,50000,0,0,0,0,0.00,0.00,0.00,0.00
2017-07-29 09:40:00,0,49988,0,0.00,0,0,0,0,49875,50000,38,50000,0,0,0,0,0.00,0.00,0.00,0.00
2017-07-29 09:50:00,0,50000,0,0.00,0,0,0,0,50000,50000,0,50000,0,0,0,0,0.00,0.00,0.00,0.00
2017-07-29 10:00:00,0,49444,0,0.00,0,0,0,0,47495,50000,902,50000,0,0,0,0,0.00,0.00,0.00,0.00
2017-07-29 10:10:00,0,48601,0,0.00,0,0,0,0,43174,50000,2069,49634,0,0,0,0,0.00,0.00,0.00,0.00
2017-07-29 10:20:00,0,50000,0,0.00,0,0,0,0,50000,50000,0,50000,0,0,0,0,0.00,0.00,0.00,0.00
2017-07-29 10:30:00,0,49860,0,0.00,0,0,0,0,48734,50000,377,50000,0,0,0,0,0.00,0.00,0.00,0.00
2017-07-29 10:40:00,0,49909,0,0.00,0,0,0,0,49088,50000,274,50000,0,0,0,0,0.00,0.00,0.00,0.00
2017-07-29 10:50:00,0,50000,0,0.00,0,0,0,0,50000,50000,0,50000,0,0,0,0,0.00,0.00,0.00,0.00
2017-07-29 11:00:00,0,50000,0,0.00,0,0,0,0,50000,50000,0,50000,0,0,0,0,0.00,0.00,0.00,0.00
2017-07-29 11:10:00,0,49853,0,0.00,0,0,0,0,49095,50000,304,50000,0,0,0,0,0.00,0.00,0.00,0.00
2017-07-29 11:20:00,0,50000,0,0.00,0,0,0,0,50000,50000,0,50000,0,0,0,0,0.00,0.00,0.00,0.00
2017-07-29 11:30:00,0,42077,0,0.00,0,0,0,0,13016,50000,13164,50000,0,0,0,0,0.00,0.00,0.00,0.00
2017-07-29 11:40:00,0,49983,0,0.00,0,0,0,0,49834,50000,50,50000,0,0,0,0,0.00,0.00,0.00,0.00
2017-07-29 11:50:00,0,48963,0,0.00,0,0,0,0,43521,50000,2013,50000,0,0,0,0,0.00,0.00,0.00,0.00
2017-07-29 12:00:00,0,50000,0,0.00,0,0,0,0,50000,50000,0,50000,0,0,0,0,0.00,0.00,0.00,0.00
2017-07-29 12:10:00,0,49750,0,0.00,0,0,0,0,47500,50000,750,50000,0,0,0,0,0.00,0.00,0.00,0.00
2017-07-29 12:20:00,0,50000,0,0.00,0,0,0,0,50000,50000,0,50000,0,0,0,0,0.00,0.00,0.00,0.00
2017-07-29 12:30:00,0,50000,0,0.00,0,0,0,0,50000,50000,0,50000,0,0,0,0,0.00,0.00,0.00,0.00
2017-07-29 12:40:00,0,50000,0,0.00,0,0,0,0,50000,50000,0,50000,0,0,0,0,0.00,0.00,0.00,0.00
2017-07-29 12:50:00,0,50000,0,0.00,0,0,0,0,50000,50000,0,50000,0,0,0,0,0.00,0.00,0.00,0.00
2017-07-29 13:00:00,0,50000,0,0.00,0,0,0,0,50000,50000,0,50000,0,0,0,0,0.00,0.00,0.00,0.00
2017-07-29 13:10:00,0,50000,0,0.00,0,0,0,0,50000,50000,0,50000,0,0,0,0,0.00,0.00,0.00,0.00
2017-07-29 13:20:00,0,50000,0,0.00,0,0,0,0,50000,50000,0,50000,0,0,0,0,0.00,0.00,0.00,0.00
2017-07-29 13:30:00,0,50000,0,0.00,0,0,0,0,50000,50000,0,50000,0,0,0,0,0.00,0.00,0.00,0.00
2017-07-29 13:40:00,0,50000,0,0.00,0,0,0,0,50000,50000,0,50000,0,0,0,0,0.00,0.00,0.00,0.00
2017-07-29 13:50:00,0,49940,0,0.00,0,0,0,0,49402,50000,179,50000,0,0,0,0,0.00,0.00,0.00,0.00
2017-07-29 14:00:00,0,50000,0,0.00,0,0,0,0,50000,50000,0,50000,0,0,0,0,0.00,0.00,0.00,0.00
2017-07-29 14:10:00,0,50000,0,0.00,0,0,0,0,50000,50000,0,50000,0,0,0,0,0.00,0.00,0.00,0.00
2017-07-29 14:20:00,0,50000,0,0.00,0,0,0,0,50000,50000,0,50000,0,0,0,0,0.00,0.00,0.00,0.00
2017-07-29 14:30:00,0,50000,0,0.00,0,0,0,0,50000,50000,0,50000,0,0,0,0,0.00,0.00,0.00,0.00
2017-07-29 14:40:00,0,50000,0,0.00,0,0,0,0,50000,50000,0,50000,0,0,0,0,0.00,0.00,0.00,0.00
2017-07-29 14:50:00,0,49916,0,0.00,0,0,0,0,49176,50000,247,50000,0,0,0,0,0.00,0.00,0.00,0.00
2017-07-29 15:00:00,0,50000,0,0.00,0,0,0,0,50000,50000,0,50000,0,0,0,0,0.00,0.00,0.00,0.00
2017-07-29 15:10:00,0,50000,0,0.00,0,0,0,0,50000,50000,0,50000,0,0,0,0,0.00,0.00,0.00,0.00
2017-07-29 15:20:00,0,50000,0,0.00,0,0,0,0,50000,50000,0,50000,0,0,0,0,0.00,0.00,0.00,0.00
2017-07-29 15:30:00,0,49697,0,0.00,0,0,0,0,46973,50000,908,50000,0,0,0,0,0.00,0.00,0.00,0.00
2017-07-29 15:40:00,0,50000,0,0.00,0,0,0,0,50000,50000,0,50000,0,0,0,0,0.00,0.00,0.00,0.00
2017-07-29 15:50:00,0,50000,0,0.00,0,0,0,0,50000,50000,0,50000,0,0,0,0,0.00,0.00,0.00,0.00
2017-07-29 16:00:00,0,50000,0,0.00,0,0,0,0,50000,50000,0,50000,0,0,0,0,0.00,0.00,0.00,0.00
2017-07-29 16:10:00,0,50000,0,0.00,0,0,0,0,50000,50000,0,50000,0,0,0,0,0.00,0.00,0.00,0.00
2017-07-29 16:20:00,0,50000,0,0.00,0,0,0,0,50000,50000,0,50000,0,0,0,0,0.00,0.00,0.00,0.00
2017-07-29 16:30:00,0,50000,0,0.00,0,0,0,0,50000,50000,0,50000,0,0,0,0,0.00,0.00,0.00,0.00
2017-07-29 16:40:00,0,50000,0,0.00,0,0,0,0,50000,50000,0,50000,0,0,0,0,0.00,0.00,0.00,0.00
2017-07-29 16:50:00,0,49908,0,0.00,0,0,0,0,49078,50000,277,50000,0,0,0,0,0.00,0.00,0.00,0.00
2017-07-29 17:00:00,0,49982,0,0.00,0,0,0,0,49817,50000,55,50000,0,0,0,0,0.00,0.00,0.00,0.00
2017-07-29 17:10:00,0,50000,0,0.00,0,0,0,0,50000,50000,0,50000,0,0,0,0,0.00,0.00,0.00,0.00
2017-07-29 17:20:00,0,50000,0,0.00,0,0,0,0,50000,50000,0,50000,0,0,0,0,0.00,0.00,0.00,0.00
2017-07-29 17:30:00,0,50000,0,0.00,0,0,0,0,50000,50000,0,50000,0,0,0,0,0.00,0.00,0.00,0.00
2017-07-29 17:40:00,0,50000,0,0.00,0,0,0,0,50000,50000,0,50000,0,0,0,0,0.00,0.00,0.00,0.00
2017-07-29 17:50:00,0,49993,0,0.00,0,0,0,0,49932,50000,20,50000,0,0,0,0,0.00,0.00,0.00,0.00
2017-07-29 18:00:00,0,50000,0,0.00,0,0,0,0,50000,50000,0,50000,0,0,0,0,0.00,0.00,0.00,0.00
2017-07-29 18:10:00,0,50000,0,0.00,0,0,0,0,50000,50000,0,50000,0,0,0,0,0.00,0.00,0.00,0.00
2017-07-29 18:20:00,0,49967,0,0.00,0,0,0,0,49671,50000,99,50000,0,0,0,0,0.00,0.00,0.00,0.00
2017-07-29 18:30:00,0,50000,0,0.00,0,0,0,0,50000,50000,0,50000,0,0,0,0,0.00,0.00,0.00,0.00
2017-07-29 18:40:00,0,49727,0,0.00,0,0,0,0,48012,50000,613,50000,0,0,0,0,0.00,0.00,0.00,0.00
2017-07-29 18:50:00,0,49885,0,0.00,0,0,0,0,48851,50000,345,50000,0,0,0,0,0.00,0.00,0.00,0.00
2017-07-29 19:00:00,0,49640,0,0.00,0,0,0,0,47136,50000,863,50000,0,0,0,0,0.00,0.00,0.00,0.00
2017-07-29 19:10:00,0,49925,0,0.00,0,0,0,0,49247,50000,226,50000,0,0,0,0,0.00,0.00,0.00,0.00
2017-07-29 19:20:00,0,50000,0,0.00,0,0,0,0,50000,50000,0,50000,0,0,0,0,0.00,0.00,0.00,0.00
2017-07-29 19:30:00,0,50000,0,0.00,0,0,0,0,50000,50000,0,50000,0,0,0,0,0.00,0.00,0.00,0.00
2017-07-29 19:40:00,0,49621,0,0.00,0,0,0,0,48010,50000,759,50000,0,0,0,0,0.00,0.00,0.00,0.00
2017-07-29 19:50:00,0,50000,0,0.00,0,0,0,0,50000,50000,0,50000,0,0,0,0,0.00,0.00,0.00,0.00
2017-07-29 20:00:00,0,50000,0,0.00,0,0,0,0,50000,50000,0,50000,0,0,0,0,0.00,0.00,0.00,0.00
2017-07-29 20:10:00,0,50000,0,0.00,0,0,0,0,50000,50000,0,50000,0,0,0,0,0.00,0.00,0.00,0.00
2017-07-29 20:20:00,0,50000,0,0.00,0,0,0,0,50000,50000,0,50000,0,0,0,0,0.00,0.00,0.00,0.00
2017-07-29 20:30:00,0,50000,0,0.00,0,0,0,0,50000,50000,0,50000,0,0,0,0,0.00,0.00,0.00,0.00
2017-07-29 20:40:00,0,49972,0,0.00,0,0,0,0,49716,50000,85,50000,0,0,0,0,0.00,0.00,0.00,0.00
2017-07-29 20:50:00,0,50000,0,0.00,0,0,0,0,50000,50000,0,50000,0,0,0,0,0.00,0.00,0.00,0.00
2017-07-29 21:00:00,0,49819,0,0.00,0,0,0,0,48186,50000,544,50000,0,0,0,0,0.00,0.00,0.00,0.00
2017-07-29 21:10:00,0,50000,0,0.00,0,0,0,0,50000,50000,0,50000,0,0,0,0,0.00,0.00,0.00,0.00
2017-07-29 21:20:00,0,50000,0,0.00,0,0,0,0,50000,50000,0,50000,0,0,0,0,0.00,0.00,0.00,0.00
2017-07-29 21:30:00,0,50000,0,0.00,0,0,0,0,50000,50000,0,50000,0,0,0,0,0.00,0.00,0.00,0.00
2017-07-29 21:40:00,0,50000,0,0.00,0,0,0,0,50000,50000,0,50000,0,0,0,0,0.00,0.00,0.00,0.00
2017-07-29 21:50:00,0,49884,0,0.00,0,0,0,0,48843,50000,347,50000,0,0,0,0,0.00,0.00,0.00,0.00
2017-07-29 22:00:00,0,49830,0,0.00,0,0,0,0,48298,50000,511,50000,0,0,0,0,0.00,0.00,0.00,0.00
2017-07-29 22:10:00,0,49791,0,0.00,0,0,0,0,48319,50000,506,50000,0,0,0,0,0.00,0.00,0.00,0.00
2017-07-29 22:20:00,0,50000,0,0.00,0,0,0,0,50000,50000,0,50000,0,0,0,0,0.00,0.00,0.00,0.00
2017-07-29 22:30:00,0,48415,0,0.00,0,0,0,0,42281,50000,2445,50000,0,0,0,0,0.00,0.00,0.00,0.00
2017-07-29 22:40:00,0,49222,0,0.00,0,0,0,0,45346,50000,1593,50000,0,0,0,0,0.00,0.00,0.00,0.00
2017-07-29 22:50:00,0,50000,0,0.00,0,0,0,0,50000,50000,0,50000,0,0,0,0,0.00,0.00,0.00,0.00
2017-07-29 23:00:00,0,49626,0,0.00,0,0,0,0,46625,50000,1002,50000,0,0,0,0,0.00,0.00,0.00,0.00
2017-07-29 23:10:00,0,48966,0,0.00,0,0,0,0,42751,50000,2119,49822,0,0,0,0,0.00,0.00,0.00,0.00
2017-07-29 23:20:00,0,48345,0,0.00,0,0,0,0,45125,50000,1620,48986,0,0,0,0,0.00,0.00,0.00,0.00
2017-07-29 23:30:00,0,49756,0,0.00,0,0,0,0,47565,50000,730,50000,0,0,0,0,0.00,0.00,0.00,0.00
2017-07-29 23:40:00,0,48945,0,0.00,0,0,0,0,44878,50000,1730,49970,0,0,0,0,0.00,0.00,0.00,0.00
2017-07-29 23:50:00,0,49729,0,0.00,0,0,0,0,47287,50000,814,50000,0,0,0,0,0.00,0.00,0.00,0.00
